星链-3320 (STARLINK-3320 )

导读 | 豆包AI

STARLINK-3320是美国太空探索技术公司(SpaceX)星链(Starlink)星座的成员卫星,于2022年1月6日发射入轨。星链计划旨在构建全球低轨宽带互联网星座,为全球基础设施薄弱地区提供高速、低时延互联网服务,并已拓展至航空、海事及军事通信等领域。作为星座组网卫星,STARLINK-3320助力星链实现全球覆盖,推动天基通信基础设施建设。

基本信息
目录编号:
50839
目录名称:
STARLINK-3320
国际标识:
2022-001AN
轨道中心:
EARTH
卫星名称:
星链-3320
卫星全名:
星链-3320 (STARLINK-3320 )
卫星状态:
在轨 (已飞行1528 天)
发射日期:
2022-01-06 UTC
国别 :
美国 (US)
星等 :
--
轨道信息
数据来源 国际轨道数据 AOE轨道数据
星历时间 2026-03-13T14:14:56+0800
1天前
查看轨道信息
2026-03-11T09:00:00+0800
3天前
查看轨道信息
半长轴 6917.877km 6917.885km
偏心率 0.000099 0.000136
轨道倾角 53.216° 53.215°
近地点辐角 93.553° 76.216°
升交点赤经 163.090° 173.054°
平近点角 266.557° 105.713°
近地点 539.055km 538.807km
远地点 540.425km 540.689km
周期 95.437分钟 95.438分钟
每日圈数 15.088412 15.088385
详细信息
固有亮度:
5
最大亮度:
2.5
卫星平台:
Starlink v1.5
覆盖范围:
全球
运营商:
太空探索技术公司
运营商所在国:
美国
制造商(研发单位):
太空探索技术公司
制造商所在国:
美国
使用方式:
暂无
卫星简介
星链(Starlink)计划是由太空探索技术公司(SpaceX)提出的一个巨型低轨卫星互联网星座项目,计划在2019年至2024年间在太空搭建由约1.2万颗卫星组成的“星链”网络,其中1584颗将部署在地球上空550千米处的近地轨道,并从2020年开始工作。该卫星仍在工作。
2D轨道图
3D轨道图
轨道高度分析图
轨道倾角分析图
轨道综合分析图
查看轨道综合分析图